sat.trackr.live / text

‹ back to catalog

STARLINK-4406

NORAD 53667 · 2022-105V

PAYLOAD ACTIVE UNKNOWN

§ Identity

Operator
Country
US
Launch date
2022-08-31
Launch site
AFWTR
Launch vehicle
Mass (kg)
RCS (m²)

Purposes: comms

External: N2YO · Heavens-Above · Gunter

§ Orbital elements

Epoch: 2026-05-25T02:32:49.284672Z

Period
93.91 min
Inclination
97.6034°
Eccentricity
0.0001830
Mean motion
15.33447881 rev/d
Perigee alt
464.3 km
Apogee alt
466.8 km
Semi-major
6,843.7 km
B*
-4.4545e-3
RAAN
28.1482°
Arg perigee
67.1850°
Mean anomaly
292.9585°
Rev number
20,490

§ Raw data

STARLINK-44061 53667U 22105V   26145.10612598 -.00141277  00000+0 -44545-2 0  99942 53667  97.6034  28.1482 0001830  67.1850 292.9585 15.33447881204901

JSON: /api/v1/satellites/53667 · /tle

For live sub-satellite position, see the globe view (requires WebGL).

§ Visibility from observer

Set your observer location to see the next 7 days of passes ≥ 10°. The values pass through the URL so the page stays shareable.

No JS? Fill the form by hand. The geolocation button needs JavaScript.